Temp
9 8 9 9 9 9 8 8 8 8 8 8 8 8 8 8 8 8 8 8 8 8 8 9 9 9 9 9 8 9 8 8 9 9 9 8 8 8 8 8 8 8 8
9 9 9 8 8 8 8 8 8 8 8 8 8 8 8 8 7 8 8 8 8 8 8 8 9 9 9 9 9 8 8 8 8 8 9 9 8 8 8 8 8 8 8
9 9 9 8 8 8 8 8 8 8 8 8 8 7 8 8 8 8 8 8 8 8 8 8 8 8 8 8 9 9 8 8 8 8 8 9 9 9 8 8 8 8 8
9 9 8 8 8 8 8 7 7 7 7 7 8 8 8 8 8 8 8 8 8 7 8 8 8 8 8 8 8 9 8 8 8 8 8 8 8 8 9 9 9 8 8
9 9 8 8 8 8 8 8 8 8 8 8 8 8 8 8 8 8 8 8 8 8 7 8 8 8 8 8 8 8 8 9 9 8 8 8 9 9 9 9 9 9 8
9 9 9 9 9 8 8 8 8 9 9 9 9 9 8 8 8 8 8 8 8 8 8 8 7 7 8 8 8 8 8 8 8 9 9 8 8 9 9 9 9 9 9
9 9 9 9 9 9 9 9 9 8 8 9 9 9 8 8 8 8 8 8 8 8 7 8 8 7 7 7 8 8 7 8 8 8 9 9 9 9 9 9 9 9 9
10 10 9 9 9 9 10 9 9 9 8 7 7 9 9 7 7 7 7 7 8 8 7 7 7 7 7 7 8 8 8 7 8 8 8 9 9 9 9 9 9 9 9
11 11 11 11 11 10 10 9 9 8 8 8 7 7 8 8 8 7 7 7 7 7 7 7 8 8 8 8 7 8 8 7 7 8 8 8 9 9 9 9 9 9 9
11 11 11 11 11 10 10 9 9 8 8 7 7 7 7 7 7 8 6 6 6 7 7 7 7 7 7 7 7 7 7 7 8 8 8 8 8 9 9 9 9 9 9
11 11 10 10 9 9 9 9 8 8 8 8 7 6 6 6 6 7 7 7 6 6 6 6 7 7 7 7 7 7 7 7 7 8 8 8 9 8 8 9 9 9 9
10 10 9 9 9 8 8 8 8 7 7 7 6 6 6 6 6 6 7 7 7 7 7 6 6 6 6 6 6 7 7 7 7 7 8 8 8 8 8 8 9 9 9
10 10 10 9 9 8 7 7 7 7 7 7 6 6 6 5 5 6 6 6 7 7 7 6 6 6 6 6 6 6 6 7 8 8 7 8 8 8 8 8 8 8 8
10 10 9 9 8 7 7 7 6 6 6 6 6 5 5 5 5 5 5 6 6 6 6 6 6 6 6 6 7 7 7 7 7 7 8 8 8 8 8 8 8 8 8
10 10 9 9 8 8 7 7 6 6 6 6 5 5 5 4 4 4 4 4 5 6 7 7 6 6 7 7 7 7 7 7 7 7 7 7 8 8 8 9 8 8 8
10 9 9 8 8 7 6 6 6 6 5 5 5 4 4 3 3 3 3 3 4 4 5 5 5 5 5 6 7 7 7 7 7 7 7 8 8 7 8 8 8 9 8
10 9 9 8 7 6 6 6 6 5 5 5 4 4 3 3 3 3 3 3 3 3 4 5 4 5 5 5 6 5 5 6 6 7 8 7 7 7 8 8 8 9 9
9 8 8 6 5 5 6 6 5 4 4 4 3 3 3 3 3 3 3 3 3 3 3 4 4 4 5 5 5 5 4 5 5 7 7 7 8 8 8 8 8 9 8
8 7 7 6 5 5 5 5 4 4 3 3 3 3 3 2 2 2 3 3 2 2 2 3 3 3 3 4 5 5 5 5 5 6 6 7 7 8 8 8 9 9 9
7 7 6 5 5 5 4 4 4 4 4 3 3 2 2 2 2 2 2 2 2 2 2 2 2 3 2 3 2 3 5 4 5 5 6 7 7 7 8 8 8 8 9
7 6 5 5 5 4 4 4 3 3 2 2 2 2 1 1 2 1 1 2 2 1 1 1 2 1 2 3 3 4 3 4 5 5 6 7 7 7 9 8 8 8 8
7 5 5 4 4 4 3 3 3 2 2 2 2 2 1 1 1 1 1 1 1 1 1 1 1 1 1 -0 1 3 3 3 5 5 6 6 7 7 8 7 8 8 8
6 5 5 4 3 3 3 3 2 2 2 2 2 2 3 1 1 1 1 1 1 0 -0 -0 -0 0 0 -1 -0 1 3 3 4 5 5 6 6 6 6 7 7 7 8
5 5 4 4 2 2 3 2 2 2 2 1 2 1 2 1 1 1 2 2 1 1 1 -0 -1 -0 -0 -1 -1 -0 2 3 4 6 5 6 6 6 6 7 7 8 8
5 5 4 4 4 2 2 2 2 2 1 1 1 1 1 1 1 2 2 2 2 1 1 -0 -1 -1 -1 -1 -1 0 2 3 6 6 5 6 6 6 6 7 7 7 7
5 4 4 3 3 3 3 3 2 2 1 1 1 1 1 1 1 2 2 2 2 2 1 1 1 -0 -1 -1 0 2 3 4 5 6 6 6 6 6 6 6 7 7 7
Height
3218 3217 3217 3215 3214 3215 3214 3213 3211 3211 3209 3208 3207 3206 3206 3205 3204 3203 3204 3203 3202 3203 3204 3206 3206 3207 3207 3208 3208 3209 3210 3211 3212 3212 3212 3212 3213 3214 3214 3215 3215 3215 3215
3216 3215 3214 3212 3212 3211 3211 3210 3210 3208 3207 3205 3204 3201 3201 3203 3202 3200 3200 3200 3200 3201 3201 3203 3204 3205 3206 3206 3207 3207 3208 3209 3210 3211 3211 3211 3212 3213 3213 3214 3215 3215 3216
3214 3213 3211 3211 3209 3208 3207 3206 3205 3204 3203 3202 3200 3198 3197 3196 3197 3196 3196 3197 3197 3197 3197 3199 3200 3202 3202 3203 3204 3205 3206 3207 3208 3209 3209 3210 3211 3212 3213 3213 3214 3214 3215
3212 3211 3210 3207 3207 3205 3203 3201 3200 3199 3198 3196 3195 3193 3191 3190 3190 3191 3191 3191 3193 3194 3194 3195 3196 3197 3198 3200 3201 3202 3203 3204 3206 3207 3208 3208 3209 3211 3211 3212 3213 3213 3214
3206 3207 3206 3204 3203 3201 3199 3197 3195 3193 3191 3189 3188 3187 3186 3185 3184 3184 3185 3186 3187 3189 3190 3191 3191 3192 3194 3196 3197 3199 3200 3202 3202 3204 3205 3206 3207 3208 3210 3210 3211 3212 3212
3203 3203 3200 3199 3198 3196 3194 3191 3190 3188 3186 3184 3184 3183 3182 3180 3179 3178 3179 3180 3181 3182 3184 3186 3186 3187 3190 3191 3193 3195 3196 3198 3199 3200 3201 3203 3204 3205 3207 3208 3209 3210 3211
3199 3197 3196 3194 3192 3190 3188 3186 3185 3184 3182 3179 3179 3179 3177 3176 3175 3175 3174 3174 3175 3177 3178 3179 3181 3182 3184 3185 3188 3189 3191 3193 3194 3195 3197 3198 3200 3201 3203 3204 3206 3207 3209
3193 3192 3192 3190 3189 3187 3184 3183 3181 3180 3178 3175 3174 3174 3173 3173 3172 3171 3170 3170 3170 3170 3171 3172 3174 3176 3177 3179 3181 3183 3184 3187 3188 3190 3191 3193 3195 3196 3198 3200 3202 3203 3205
3191 3191 3190 3187 3184 3182 3180 3178 3176 3175 3175 3172 3170 3169 3168 3169 3169 3168 3167 3166 3166 3166 3166 3166 3167 3169 3171 3172 3174 3175 3177 3178 3180 3183 3184 3186 3188 3191 3193 3195 3197 3199 3200
3190 3189 3187 3185 3182 3180 3177 3175 3173 3170 3170 3169 3168 3165 3164 3162 3162 3164 3165 3163 3161 3161 3162 3162 3162 3163 3164 3165 3165 3167 3169 3171 3173 3175 3177 3179 3181 3183 3186 3189 3191 3193 3195
3187 3186 3184 3182 3180 3177 3174 3172 3170 3168 3167 3166 3165 3163 3161 3159 3157 3156 3158 3159 3159 3157 3156 3156 3156 3156 3156 3156 3156 3157 3159 3161 3164 3166 3169 3171 3173 3175 3179 3182 3184 3187 3189
3184 3182 3180 3178 3175 3172 3170 3168 3167 3165 3164 3163 3161 3159 3158 3157 3155 3153 3151 3151 3151 3153 3152 3151 3149 3148 3148 3147 3147 3147 3148 3151 3154 3156 3158 3161 3164 3166 3169 3174 3177 3179 3182
3182 3179 3176 3173 3171 3169 3167 3165 3164 3162 3161 3160 3158 3155 3153 3152 3150 3148 3147 3144 3142 3144 3144 3143 3141 3139 3138 3137 3137 3138 3138 3139 3142 3143 3147 3150 3154 3158 3160 3163 3168 3172 3174
3178 3175 3173 3170 3168 3166 3164 3162 3160 3159 3157 3155 3154 3152 3150 3147 3145 3143 3141 3138 3136 3135 3136 3134 3134 3132 3130 3128 3126 3127 3128 3128 3129 3131 3135 3139 3143 3147 3152 3153 3156 3162 3165
3175 3172 3170 3168 3164 3161 3159 3158 3156 3153 3152 3151 3149 3147 3145 3144 3141 3138 3136 3134 3130 3126 3126 3127 3123 3123 3120 3118 3116 3112 3114 3117 3118 3119 3123 3127 3132 3137 3141 3145 3145 3150 3155
3173 3170 3166 3164 3161 3158 3156 3154 3152 3149 3147 3145 3143 3141 3140 3138 3136 3134 3130 3127 3124 3121 3117 3117 3115 3111 3110 3106 3103 3099 3098 3100 3105 3108 3110 3112 3119 3125 3130 3135 3138 3141 3145
3170 3168 3165 3161 3158 3155 3153 3151 3149 3146 3144 3142 3139 3136 3135 3133 3131 3127 3124 3121 3117 3114 3111 3109 3104 3102 3100 3095 3092 3088 3086 3086 3089 3095 3097 3099 3105 3112 3119 3123 3128 3132 3136
3167 3164 3159 3156 3154 3151 3148 3145 3144 3141 3139 3136 3134 3131 3128 3126 3124 3120 3117 3114 3110 3107 3102 3097 3096 3091 3088 3085 3080 3077 3076 3075 3076 3082 3086 3088 3094 3100 3106 3112 3117 3122 3126
3161 3158 3155 3152 3150 3147 3144 3141 3138 3136 3133 3130 3128 3126 3123 3120 3117 3114 3110 3107 3103 3099 3096 3089 3084 3082 3077 3073 3068 3065 3063 3063 3064 3068 3072 3076 3080 3086 3093 3099 3106 3112 3117
3156 3154 3150 3148 3145 3143 3140 3137 3134 3130 3127 3124 3121 3118 3116 3113 3109 3105 3103 3099 3095 3092 3087 3082 3076 3071 3066 3062 3056 3049 3048 3049 3051 3054 3058 3064 3069 3074 3080 3088 3094 3100 3107
3152 3149 3147 3145 3142 3138 3135 3133 3129 3125 3122 3118 3115 3111 3108 3105 3101 3097 3095 3093 3088 3083 3079 3073 3067 3061 3055 3047 3043 3039 3035 3035 3037 3043 3046 3051 3057 3062 3068 3073 3080 3087 3096
3148 3146 3143 3141 3138 3134 3130 3126 3124 3121 3116 3112 3108 3104 3099 3097 3094 3091 3087 3084 3082 3076 3071 3064 3058 3052 3045 3037 3030 3027 3024 3023 3024 3032 3037 3043 3048 3051 3057 3064 3070 3077 3086
3143 3141 3138 3136 3132 3129 3125 3121 3118 3115 3111 3107 3101 3096 3091 3088 3086 3084 3081 3078 3074 3070 3065 3057 3050 3045 3035 3029 3019 3013 3011 3009 3011 3021 3024 3028 3035 3040 3047 3053 3061 3068 3076
3137 3135 3133 3129 3123 3122 3119 3116 3113 3109 3105 3101 3095 3089 3086 3083 3081 3078 3074 3071 3067 3064 3059 3052 3044 3036 3028 3018 3008 3000 2994 2992 2996 3005 3013 3015 3025 3030 3038 3045 3051 3058 3067
3129 3128 3126 3122 3119 3116 3113 3109 3106 3102 3099 3094 3089 3084 3080 3078 3075 3072 3068 3063 3060 3057 3051 3045 3038 3030 3020 3007 2996 2986 2981 2979 2982 2993 3003 3008 3017 3024 3031 3037 3043 3050 3056
3120 3119 3118 3116 3111 3107 3106 3102 3100 3095 3091 3087 3083 3077 3075 3071 3068 3065 3061 3057 3053 3049 3043 3037 3031 3023 3011 2997 2985 2976 2970 2970 2974 2984 2996 2999 3010 3017 3022 3028 3035 3040 3046
Wind_Speed
3 6 8 10 11 11 11 12 14 15 17 18 18 17 13 14 14 10 9 8 10 8 8 10 9 7 6 6 8 9 9 10 9 8 8 7 6 6 6 6 5 5 6
7 10 12 13 15 16 15 15 17 17 17 17 18 19 18 15 14 15 12 11 11 10 10 10 9 9 9 8 9 10 11 12 11 10 10 8 7 7 7 6 5 5 5
9 10 13 14 16 18 17 17 18 19 18 19 20 23 24 23 19 19 19 15 13 14 13 12 11 11 11 12 11 12 12 13 13 12 11 11 10 9 8 7 7 6 5
11 11 14 16 16 18 20 19 21 21 22 23 22 23 25 26 25 23 22 20 17 17 16 16 16 15 13 13 14 13 13 14 13 13 13 13 13 12 11 9 8 8 7
14 13 14 17 17 20 21 26 24 23 23 23 20 17 19 20 21 22 22 23 20 21 21 19 19 18 17 16 16 16 15 16 15 14 15 15 15 14 13 11 10 9 8
19 19 17 18 20 23 24 22 19 19 19 20 15 13 13 15 15 16 17 20 22 22 21 21 21 21 20 20 20 20 20 18 18 18 17 17 17 17 16 14 12 11 9
20 16 17 18 22 20 18 19 18 15 15 15 13 12 10 11 12 14 15 16 17 19 22 24 22 23 23 23 23 23 22 22 23 22 21 20 19 19 18 17 16 14 12
15 15 18 18 18 18 19 18 17 15 12 13 12 13 9 10 12 12 14 16 17 17 18 22 25 24 24 24 25 27 27 27 26 26 24 24 23 22 21 20 19 18 16
16 17 17 18 20 22 22 22 20 17 13 15 15 15 14 9 9 12 14 15 16 16 18 21 22 23 26 28 27 29 31 32 31 30 29 28 27 25 24 23 22 21 20
10 12 13 17 19 22 22 21 20 19 17 14 15 16 16 18 17 11 10 15 18 19 19 22 23 24 24 29 32 32 31 33 36 34 32 31 31 30 28 27 26 24 23
13 13 15 16 18 19 19 18 17 17 17 16 13 13 15 18 21 22 17 15 17 21 24 24 26 27 28 30 29 32 36 35 35 38 37 34 34 33 32 30 29 27 26
16 16 16 18 17 15 14 13 14 15 15 16 17 18 18 19 19 22 24 23 22 20 21 24 29 31 31 33 33 31 34 36 37 39 40 41 38 37 35 35 32 31 30
21 20 20 20 17 13 13 14 15 15 14 15 16 16 17 18 20 20 22 25 26 23 20 20 23 26 30 35 36 35 34 38 41 40 41 44 43 41 40 38 38 34 32
25 22 20 18 17 14 13 14 15 15 15 15 15 17 17 18 20 21 23 27 29 27 23 22 21 23 24 27 34 38 39 37 42 44 48 49 46 44 44 41 39 40 38
29 24 22 19 18 18 16 15 15 16 17 17 16 18 18 19 20 23 25 26 29 31 29 23 25 23 27 29 32 37 41 42 40 44 41 50 48 45 44 46 43 41 40
29 24 22 20 19 17 17 17 18 18 19 19 19 21 20 20 21 26 29 29 29 30 32 28 28 31 31 33 32 35 41 44 46 43 46 46 55 52 48 49 46 43 42
29 25 22 20 16 15 16 17 18 17 17 17 18 20 19 21 25 28 30 28 29 29 32 32 36 34 33 34 35 33 37 45 44 42 43 41 49 48 52 50 47 44 44
27 24 21 18 16 15 16 18 18 17 17 17 17 21 23 26 27 27 28 29 29 30 33 37 38 37 36 34 36 36 32 43 45 45 43 45 48 48 49 46 46 44 41
24 19 17 15 14 16 19 21 18 16 18 19 19 23 24 26 26 26 27 27 28 30 33 39 40 40 41 42 42 39 32 39 45 44 44 40 44 46 46 45 46 47 43
21 18 15 16 15 18 20 19 19 20 18 20 22 22 24 25 25 26 27 27 28 31 36 38 39 43 47 40 39 38 35 35 44 45 45 44 45 48 51 47 45 43 42
19 17 16 15 18 21 21 20 21 22 22 23 23 24 24 24 26 27 29 28 29 33 36 35 40 41 46 46 42 33 34 35 42 46 45 45 41 41 46 45 50 46 44
16 14 16 17 18 23 24 21 25 24 24 26 27 27 27 26 26 26 27 27 29 32 33 38 41 44 50 51 43 34 33 34 41 44 44 42 44 41 44 54 41 42 42
17 17 19 18 20 23 28 24 28 26 26 22 26 28 27 24 27 24 27 28 28 29 31 39 42 45 53 52 49 44 39 36 43 43 45 44 45 43 38 43 50 46 44
20 18 18 17 21 22 30 30 28 27 25 26 31 25 20 17 21 25 27 27 29 31 32 36 40 45 52 54 45 48 44 36 44 46 47 48 43 42 38 41 37 49 45
20 22 19 27 25 23 30 31 25 30 25 23 29 29 28 26 23 26 27 28 27 29 32 36 39 46 53 41 40 45 43 33 42 45 47 45 40 40 40 41 39 40 39
19 25 23 25 29 33 30 26 30 26 24 29 36 30 27 26 27 29 28 27 27 29 33 36 38 44 45 34 34 34 36 29 37 42 43 45 38 37 40 43 40 38 42
Wind_Direction
272 272 280 284 297 302 301 299 304 305 305 305 299 298 298 299 291 279 274 275 273 279 274 280 276 267 259 241 240 239 239 240 240 237 223 215 211 205 205 205 200 196 195
278 272 278 288 294 300 299 296 297 296 300 299 302 301 298 292 282 282 273 267 268 264 262 269 270 267 258 253 243 245 250 247 243 241 239 220 207 201 196 201 196 198 197
290 277 280 282 287 291 293 294 292 290 293 293 292 289 291 288 281 275 278 266 259 254 250 257 255 261 260 256 248 242 246 252 251 244 237 234 219 210 208 204 199 195 200
288 273 273 283 287 290 292 297 297 295 292 286 282 279 280 281 280 274 269 269 263 255 252 249 250 252 258 255 252 248 245 246 250 249 243 233 229 224 219 219 221 220 219
287 275 280 281 290 293 291 296 295 293 292 292 293 288 277 279 280 277 272 268 263 260 259 255 247 249 252 255 251 249 252 252 247 243 247 244 233 230 231 226 226 228 222
284 285 290 292 294 290 290 294 296 297 296 292 297 283 274 276 282 283 273 265 264 257 256 250 253 246 247 248 250 249 250 251 252 249 243 243 242 236 233 233 230 227 228
284 287 290 296 303 306 308 307 307 302 290 294 299 299 292 275 267 273 275 269 267 261 257 250 251 254 247 245 245 246 246 250 249 246 245 241 239 241 238 235 234 232 230
291 291 297 301 300 302 305 311 312 310 305 302 302 304 294 273 274 269 267 267 267 265 255 252 249 246 251 246 244 243 245 246 248 247 244 243 241 237 237 236 235 236 234
284 289 297 305 309 311 313 314 314 311 306 300 307 309 307 290 262 268 274 272 268 262 255 254 252 249 247 252 249 243 242 244 244 246 245 242 241 238 235 236 236 238 239
300 306 307 304 307 305 305 306 308 308 310 302 300 304 306 305 299 280 264 276 280 279 269 262 262 257 258 252 251 250 246 246 245 241 243 241 239 238 236 235 237 238 241
339 329 321 314 304 300 302 305 304 305 305 303 299 294 296 299 303 305 296 279 276 278 281 280 276 271 268 262 261 261 250 248 244 244 240 240 236 237 238 235 236 237 239
347 340 333 330 330 324 315 309 307 304 302 299 297 295 293 292 291 293 296 297 292 281 281 278 275 271 268 265 265 262 255 252 246 241 241 240 237 232 234 234 235 235 238
354 345 341 339 338 330 321 314 311 304 303 299 301 299 303 304 302 302 302 303 304 302 296 289 285 276 269 266 263 260 255 250 248 238 239 237 237 234 231 232 236 237 238
356 348 342 339 338 331 320 314 310 303 300 300 300 298 296 298 299 300 301 300 301 302 299 294 281 278 277 278 271 261 256 254 251 245 243 239 233 234 234 231 233 238 240
348 344 339 334 328 323 320 317 310 304 302 301 301 297 299 300 301 303 306 307 304 305 301 299 291 291 290 285 280 270 259 250 252 247 249 234 237 231 235 236 232 235 239
341 336 336 332 330 325 320 317 311 309 309 311 308 304 305 304 301 302 304 306 302 301 303 307 300 304 300 298 296 277 254 246 243 246 245 246 235 243 236 237 238 237 237
334 329 333 331 333 328 324 319 315 312 307 301 304 302 303 299 302 302 303 302 300 299 300 301 302 303 302 296 293 296 255 243 242 243 248 239 229 233 235 235 236 238 239
330 333 338 334 330 329 328 330 326 316 310 308 304 298 300 306 305 302 301 299 299 301 305 305 307 306 304 300 297 296 267 243 240 237 241 236 234 238 228 235 232 235 238
331 336 335 331 325 326 325 327 329 319 305 301 298 293 294 298 299 299 299 300 298 301 307 308 308 312 312 309 299 286 273 247 241 235 234 239 228 231 231 233 237 235 237
328 332 336 342 338 343 335 324 322 327 325 315 310 305 302 303 303 302 301 302 298 301 305 308 309 309 316 311 307 298 269 248 241 235 233 232 233 230 229 235 231 233 236
321 323 326 330 333 336 332 324 326 327 322 317 310 306 301 304 303 302 301 298 297 300 304 307 309 314 321 312 307 290 282 253 235 235 232 229 231 231 226 229 227 225 230
316 324 331 323 333 327 327 326 323 320 311 318 316 305 294 289 292 302 304 302 299 303 304 307 309 313 319 320 306 297 278 264 239 230 231 228 229 233 227 216 218 221 229
328 323 314 317 329 321 325 322 317 308 306 316 323 318 305 289 285 297 302 301 301 304 302 311 312 315 311 311 306 297 288 266 245 221 229 226 223 229 224 217 228 224 222
330 319 300 291 314 318 324 312 305 303 303 305 320 305 308 307 299 303 300 300 302 306 303 311 312 317 313 315 304 295 290 267 240 223 222 227 221 224 226 220 222 221 219
321 310 290 278 312 309 309 307 308 307 292 299 325 303 296 301 309 307 303 303 309 309 308 309 315 318 318 314 307 296 288 264 234 222 220 227 224 224 224 219 213 216 224
311 304 298 313 307 315 308 317 311 304 291 299 303 298 287 297 300 303 305 306 310 313 311 311 312 317 328 326 308 282 269 259 234 218 216 228 223 224 224 221 214 214 219